GW2517 Weather Reports


Display with metric or nautical units.
time (UTC)temp
F
wind
direction
speed
MPH
gust
MPH
rain 1hr
in
rain 24hr
in
rain mn
in
humidity
%
barometer
mb
20260906174023 79 162 3.0 8.0 0.00 0.00 0.00 69 1018.3
20260906173020 78 176 4.0 7.0 0.00 0.00 0.00 71 1018.5
20260906172017 77 169 5.0 10.0 0.00 0.00 0.00 72 1018.6
20260906171035 77 168 4.0 8.0 0.00 0.00 0.00 72 1018.7
20260906170032 76 178 5.0 9.0 0.00 0.00 0.00 74 1018.7
20260906165029 76 174 5.0 10.0 0.00 0.00 0.00 75 1019.0
20260906164026 77 182 5.0 9.0 0.00 0.00 0.00 75 1019.2
20260906163043 76 169 4.0 7.0 0.00 0.00 0.00 75 1019.3
20260906162040 75 168 4.0 9.0 0.00 0.00 0.00 77 1019.1
20260906161017 75 174 4.0 8.0 0.00 0.00 0.00 76 1019.1
20260906160035 75 175 5.0 11.0 0.00 0.00 0.00 76 1019.2
20260906155033 75 170 5.0 9.0 0.00 0.00 0.00 78 1019.1
20260906154029 74 173 4.0 9.0 0.00 0.00 0.00 79 1019.1
20260906153046 74 182 4.0 9.0 0.00 0.00 0.00 79 1018.9
20260906152024 74 170 4.0 8.0 0.00 0.00 0.00 80 1018.8
20260906151021 73 174 4.0 8.0 0.00 0.00 0.00 83 1019.2
20260906150018 73 167 3.0 7.0 0.00 0.00 0.00 84 1019.2
20260906145035 71 168 4.0 7.0 0.00 0.00 0.00 87 1019.0
20260906144033 71 156 3.0 6.0 0.00 0.00 0.00 89 1018.9
20260906143029 70 177 4.0 6.0 0.00 0.00 0.00 91 1018.9
20260906142046 69 168 4.0 7.0 0.00 0.00 0.00 96 1018.7
20260906141024 67 164 3.0 6.0 0.00 0.00 0.00 99 1018.7
20260906140021 66 177 4.0 6.0 0.00 0.00 0.00 99 1018.8
20260906135018 66 171 2.0 4.0 0.00 0.00 0.00 99 1019.0
20260906134016 65 160 2.0 4.0 0.00 0.00 0.00 99 1018.9
20260906133033 64 239 1.0 2.0 0.00 0.00 0.00 99 1018.9
20260906132030 64 294 1.0 3.0 0.00 0.00 0.00 99 1018.9
20260906131027 63 291 1.0 2.0 0.00 0.00 0.00 99 1018.9
20260906130024 62 307 2.0 4.0 0.00 0.00 0.00 99 1018.7
20260906125041 61 274 2.0 3.0 0.00 0.00 0.00 99 1018.5
20260906124018 60 310 3.0 5.0 0.00 0.00 0.00 99 1018.6
20260906123015 61 311 3.0 5.0 0.00 0.00 0.00 99 1018.4
20260906122033 60 291 2.0 3.0 0.00 0.00 0.00 99 1018.4
20260906121030 60 298 2.0 4.0 0.00 0.00 0.00 99 1018.4
20260906120047 60 279 2.0 4.0 0.00 0.00 0.00 99 1018.4
20260906115024 59 288 2.0 4.0 0.00 0.00 0.00 99 1018.3
20260906114021 59 297 3.0 4.0 0.00 0.00 0.00 99 1018.2
20260906113018 59 305 3.0 4.0 0.00 0.00 0.00 99 1018.0
20260906112035 60 300 2.0 4.0 0.00 0.00 0.00 99 1017.8
20260906111033 60 276 2.0 3.0 0.00 0.00 0.00 99 1017.7
20260906110029 60 280 2.0 3.0 0.00 0.00 0.00 99 1017.9
20260906105026 59 287 2.0 4.0 0.00 0.00 0.00 99 1018.0
20260906104024 60 294 2.0 4.0 0.00 0.00 0.00 99 1017.8
20260906103041 60 305 3.0 5.0 0.00 0.00 0.00 99 1017.8
20260906102018 60 275 1.0 3.0 0.00 0.00 0.00 99 1017.7
20260906101015 60 288 1.0 3.0 0.00 0.00 0.00 99 1017.5
20260906100033 60 297 2.0 4.0 0.00 0.00 0.00 99 1017.7
20260906095030 61 306 3.0 5.0 0.00 0.00 0.00 99 1017.6
20260906094027 60 314 4.0 6.0 0.00 0.00 0.00 99 1017.5
20260906093024 60 304 3.0 5.0 0.00 0.00 0.00 99 1017.3
20260906092021 60 304 3.0 5.0 0.00 0.00 0.00 99 1017.1
20260906091018 60 306 2.0 4.0 0.00 0.00 0.00 99 1017.0
20260906090016 61 290 2.0 4.0 0.00 0.00 0.00 99 1016.9
20260906085032 61 301 2.0 4.0 0.00 0.00 0.00 99 1017.1
20260906084030 61 290 2.0 4.0 0.00 0.00 0.00 99 1017.2
20260906083027 61 307 2.0 4.0 0.00 0.00 0.00 99 1017.4
20260906082023 62 313 3.0 5.0 0.00 0.00 0.00 99 1017.3
20260906081021 61 307 3.0 4.0 0.00 0.00 0.00 99 1017.4
20260906080018 61 321 4.0 5.0 0.00 0.00 0.00 99 1017.4
20260906075035 61 313 4.0 5.0 0.00 0.00 0.00 99 1017.3
20260906074033 60 313 4.0 6.0 0.00 0.00 0.00 99 1017.1
20260906073029 61 293 2.0 3.0 0.00 0.00 0.00 99 1017.2
20260906072027 61 315 3.0 6.0 0.00 0.00 0.00 99 1017.2
20260906071024 62 304 3.0 4.0 0.00 0.00 0.00 99 1017.2
20260906070020 62 307 3.0 6.0 0.00 0.00 0.00 99 1017.5
20260906065018 62 310 3.0 5.0 0.00 0.00 0.00 99 1017.5
20260906064035 63 300 2.0 4.0 0.00 0.00 0.00 99 1017.5
20260906063033 63 281 2.0 4.0 0.00 0.00 0.00 99 1017.5
20260906062029 64 310 2.0 3.0 0.00 0.00 0.00 99 1017.8
20260906061046 64 323 3.0 6.0 0.00 0.00 0.00 99 1017.7
20260906060024 64 312 3.0 4.0 0.00 0.00 0.00 99 1017.7
20260906055020 64 303 2.0 4.0 0.00 0.00 0.00 99 1017.7
20260906054017 64 315 2.0 4.0 0.00 0.00 0.00 99 1017.7
20260906053054 64 312 2.0 4.0 0.00 0.00 0.00 99 1017.6
20260906052032 64 308 2.0 4.0 0.00 0.00 0.00 99 1017.4
20260906051029 64 283 2.0 3.0 0.00 0.00 0.00 99 1017.4
20260906050026 64 255 2.0 3.0 0.00 0.00 0.00 99 1017.4
20260906045104 65 276 2.0 3.0 0.00 0.00 0.00 99 1017.6
20260906044040 64 318 3.0 4.0 0.00 0.00 0.00 99 1017.7
20260906043017 64 323 3.0 4.0 0.00 0.00 0.00 99 1017.6
20260906042034 64 313 2.0 4.0 0.00 0.00 0.00 99 1017.5
20260906041032 64 294 2.0 4.0 0.00 0.00 0.00 99 1017.2
20260906040028 64 290 2.0 3.0 0.00 0.00 0.00 99 1017.3
20260906035026 64 321 3.0 4.0 0.00 0.00 0.00 99 1017.3
20260906034023 64 311 3.0 5.0 0.00 0.00 0.00 99 1017.5
20260906033041 64 306 2.0 4.0 0.00 0.00 0.00 99 1017.3
20260906032017 64 325 4.0 6.0 0.00 0.00 0.00 99 1017.3
20260906031033 64 315 2.0 4.0 0.00 0.00 0.00 99 1017.2
20260906030031 64 312 3.0 6.0 0.00 0.00 0.00 99 1016.8
20260906025028 64 302 3.0 4.0 0.00 0.00 0.00 99 1016.8
20260906024025 64 313 3.0 5.0 0.00 0.00 0.00 99 1016.7
20260906023042 65 293 2.0 4.0 0.00 0.00 0.00 99 1016.5
20260906022039 65 318 3.0 5.0 0.00 0.00 0.00 99 1016.5
20260906021017 65 313 3.0 4.0 0.00 0.00 0.00 98 1016.2
20260906020034 66 310 2.0 4.0 0.00 0.00 0.00 97 1015.9
20260906015031 67 327 2.0 4.0 0.00 0.00 0.00 96 1015.7
20260906014048 68 326 2.0 3.0 0.00 0.00 0.00 96 1015.4
20260906013025 68 329 2.0 3.0 0.00 0.00 0.00 94 1015.1
20260906012042 69 330 1.0 2.0 0.00 0.00 0.00 92 1014.9
20260906011019 70 322 1.0 2.0 0.00 0.00 0.00 92 1014.6
20260906010016 70 13 1.0 2.0 0.00 0.00 0.00 91 1014.7
20260906005034 71 346 1.0 3.0 0.00 0.00 0.00 90 1015.0
20260906004031 73 20 1.0 3.0 0.00 0.00 0.00 87 1015.0
20260906003028 74 64 1.0 2.0 0.00 0.00 0.00 85 1015.3
20260906002045 74 341 1.0 4.0 0.00 0.00 0.00 83 1015.1
20260906001022 76 331 0.0 2.0 0.00 0.00 0.00 81 1015.2
20260906000020 76 284 1.0 3.0 0.00 0.00 0.00 80 1015.0
20260905235036 77 293 2.0 4.0 0.00 0.00 0.00 77 1015.0
20260905234033 79 321 1.0 3.0 0.00 0.00 0.00 75 1015.0
20260905233030 80 327 1.0 3.0 0.00 0.00 0.00 72 1015.0
20260905232028 82 346 2.0 3.0 0.00 0.00 0.00 70 1015.1
20260905231025 83 253 1.0 3.0 0.00 0.00 0.00 68 1015.2
20260905230022 82 309 1.0 2.0 0.00 0.00 0.00 70 1015.3
20260905225039 83 240 2.0 5.0 0.00 0.00 0.00 67 1015.1
20260905224016 83 317 1.0 5.0 0.00 0.00 0.00 67 1015.1
20260905223034 83 209 1.0 2.0 0.00 0.00 0.00 67 1015.5
20260905222031 81 292 2.0 5.0 0.00 0.00 0.00 70 1015.3
20260905221047 83 193 1.0 4.0 0.00 0.00 0.00 66 1015.3
20260905220025 81 27 2.0 5.0 0.00 0.00 0.00 69 1015.4
20260905215022 82 188 2.0 4.0 0.00 0.00 0.00 68 1015.6
20260905214019 82 7 1.0 4.0 0.00 0.00 0.00 68 1015.7
20260905213017 81 309 2.0 4.0 0.00 0.00 0.00 69 1015.7
20260905212034 80 287 2.0 4.0 0.00 0.00 0.00 70 1015.9
20260905211030 79 322 4.0 7.0 0.00 0.00 0.00 74 1015.8
20260905210028 80 334 3.0 8.0 0.00 0.00 0.00 70 1016.0
20260905205025 80 270 2.0 4.0 0.00 0.00 0.00 70 1016.1
20260905204022 79 284 2.0 3.0 0.00 0.00 0.00 71 1016.2
20260905203019 80 309 2.0 6.0 0.00 0.00 0.00 70 1016.3
20260905202016 80 177 2.0 4.0 0.00 0.00 0.00 73 1016.6
20260905201055 78 207 2.0 5.0 0.00 0.00 0.00 73 1016.6
20260905200031 77 228 2.0 3.0 0.00 0.00 0.00 77 1016.6
20260905195028 78 254 2.0 4.0 0.00 0.00 0.00 75 1016.6
20260905194025 78 304 2.0 4.0 0.00 0.00 0.00 73 1016.6
20260905193023 78 155 1.0 2.0 0.00 0.00 0.00 74 1016.5
20260905192040 78 200 1.0 3.0 0.00 0.00 0.00 73 1016.5
20260905191017 76 255 1.0 2.0 0.00 0.00 0.00 75 1016.7
20260905190054 75 195 1.0 4.0 0.00 0.00 0.00 80 1016.5
20260905185031 75 210 1.0 4.0 0.00 0.00 0.00 79 1016.4
20260905184028 76 172 2.0 4.0 0.00 0.00 0.00 80 1016.4
20260905183046 75 230 2.0 5.0 0.00 0.00 0.00 81 1016.4
20260905182023 75 289 1.0 3.0 0.00 0.00 0.00 80 1016.6
20260905181020 75 199 1.0 3.0 0.00 0.00 0.00 81 1016.7
20260905180037 76 178 2.0 5.0 0.00 0.00 0.00 81 1016.8
20260905175034 75 309 2.0 3.0 0.00 0.00 0.00 81 1017.0